This is the latest recevied weather packets stored in our database for station/object KM5R. If no packets are shown the sender has not sent any weather packets the latest 10 day(s).
| Time | Temp. | Humidity | Pressure | Rain* | Wind** | Luminosity | Snow |
|---|---|---|---|---|---|---|---|
| 1777841408 | 25.56° C | 31% | 1020.2 hPa | 0 mm | - | 607 W/m² | - |
| 1777841105 | 25.56° C | 30% | 1020.4 hPa | 0 mm | - | 659 W/m² | - |
| 1777840802 | 25.56° C | 31% | 1020.3 hPa | 0 mm | - | 699 W/m² | - |
| 1777840499 | 25.56° C | 30% | 1020.5 hPa | 0 mm | - | 678 W/m² | - |
| 1777840196 | 25.56° C | 31% | 1020.6 hPa | 0 mm | - | 697 W/m² | - |
| 1777839894 | 25° C | 30% | 1020.7 hPa | 0 mm | - | 710 W/m² | - |
| 1777839592 | 25° C | 30% | 1020.9 hPa | 0 mm | - | 724 W/m² | - |
| 1777839290 | 25.56° C | 29% | 1020.7 hPa | 0 mm | - | 731 W/m² | - |
| 1777838987 | 25° C | 30% | 1021 hPa | 0 mm | - | 728 W/m² | - |
| 1777838683 | 25.56° C | 28% | 1021.1 hPa | 0 mm | - | 744 W/m² | - |
| 1777838380 | 25.56° C | 28% | 1021.5 hPa | 0 mm | - | 751 W/m² | - |
| 1777838077 | 25.56° C | 30% | 1021.5 hPa | 0 mm | - | 760 W/m² | - |
| 1777837773 | 25° C | 30% | 1021.4 hPa | 0 mm | - | 739 W/m² | - |
| 1777837471 | 25.56° C | 30% | 1021.4 hPa | 0 mm | - | 716 W/m² | - |
| 1777837166 | 25° C | 31% | 1021.6 hPa | 0 mm | - | 758 W/m² | - |
| 1777836862 | 25° C | 32% | 1021.6 hPa | 0 mm | - | 761 W/m² | - |
| 1777836557 | 25° C | 30% | 1021.7 hPa | 0 mm | - | 748 W/m² | - |
| 1777836254 | 24.44° C | 30% | 1021.6 hPa | 0 mm | - | 751 W/m² | - |
| 1777835950 | 25° C | 29% | 1021.9 hPa | 0 mm | - | 772 W/m² | - |
| 1777835648 | 25.56° C | 28% | 1021.8 hPa | 0 mm | - | 779 W/m² | - |
| 1777835344 | 25° C | 29% | 1021.8 hPa | 0 mm | - | 779 W/m² | - |
| 1777835041 | 25° C | 28% | 1021.9 hPa | 0 mm | - | 781 W/m² | - |
| 1777834737 | 25° C | 30% | 1022.1 hPa | 0 mm | - | 787 W/m² | - |
| 1777834434 | 25° C | 31% | 1022.4 hPa | 0 mm | - | 753 W/m² | - |
| 1777834134 | 25° C | 30% | 1022.3 hPa | 0 mm | - | 787 W/m² | - |
* Rain latest hour (hover to see other rain measurements)
** Current wind speed in m/s (hover to see current wind gust speed)